Regional Weather Roundup
Issued by NWS

Home | Current Version | Previous Version | Graphics & Text | Print | Product List | Glossary On
Versions: 1 2 3 4 5 6 7 8 9 10 11 12 13 14 15 16 17 18 19 20 21 22 23 24 25 26 27 28 29 30 31 32 33 34 35 36 37 38 39 40 41 42 43 44 45 46 47 48 49 50
000
ASUS43 KIND 201259
RWRIN

WEATHER ROUNDUP FOR INDIANA
NATIONAL WEATHER SERVICE INDIANAPOLIS IN
900 AM EDT THU JUL 20 2017

NOTE: "FAIR" INDICATES FEW OR NO CLOUDS BELOW 12,000 FEET WITH NO
SIGNIFICANT WEATHER AND/OR OBSTRUCTIONS TO VISIBILITY.

* - STATION DOES NOT REPORT WEATHER SUCH AS PRECIPITATION OR FOG.

+ - STATION NOT QUALITY CONTROLLED BY THE NATIONAL WEATHER SERVICE.
    USE DATA WITH CAUTION...ESPECIALLY DEWPOINT AND RELATIVE
    HUMIDITY OBSERVATIONS.

INZ001>003-010>013-019-020-201400-
NORTHWEST INDIANA

CITY           SKY/WX    TMP DP  RH WIND       PRES   REMARKS
GARY /AIRPORT/ RAIN      72  70  94 SE6       30.09R
KNOX *+        CLOUDY    68  68 100 N5        30.10R
MICHIGAN CITY+ RAIN      68  68 100 CALM      30.09F
MONTICELLO +   CLOUDY    70  69  95 CALM      30.08R
VALPARAISO     HVY RAIN  70  69  97 SE5       30.11F FOG

$$

LMZ046-743>745-201400-
SOUTHERN LAKE MICHIGAN

STATION/POSITION TIME  TEMP    WIND        PRES    WAVE
                       AIR SEA DIR/SP/G            HT
                 (UTC) (F)     (DEG/KT/KT) (MB)    (FT)
BURNS HARBOR     1240   69      70/  1/  3 1019.0F
MICHIGAN CITY    1230   70      90/  3/  4   N/A
5NW MICH CITY    1250   71 74  120/  4/  6   N/A     1

$$

INZ004-005-014>016-021>024-201400-
NORTH CENTRAL INDIANA

CITY           SKY/WX    TMP DP  RH WIND       PRES   REMARKS
ELKHART        LGT RAIN  70  66  88 SW5       30.09R
PERU/GRISSOM   MOSUNNY   72  72 100 CALM      30.09R
SOUTH BEND     RAIN      69  68  96 W8        30.11R

$$

INZ006>009-017-018-025>027-201400-
NORTHEAST INDIANA

CITY           SKY/WX    TMP DP  RH WIND       PRES   REMARKS
ANGOLA *+      SUNNY     73  66  78 W5        30.07R
FORT WAYNE     CLOUDY    74  68  81 W9        30.10R
KENDALLVILLE + CLOUDY   N/A N/A N/A W6        30.10R

$$

INZ028-029-035-036-043>045-051>053-201400-
WEST CENTRAL INDIANA

CITY           SKY/WX    TMP DP  RH WIND       PRES   REMARKS
LAFAYETTE      CLOUDY    73  70  90 CALM      30.06S
TERRE HAUTE    MOSUNNY   78  73  84 S7        30.08R

$$

INZ030>032-037>040-046>048-054>057-064-065-201400-
CENTRAL INDIANA

CITY           SKY/WX    TMP DP  RH WIND       PRES   REMARKS
ANDERSON       SUNNY     79  70  73 CALM        N/A
GREENWOOD *+   CLOUDY    76  71  83 SW5       30.10S
INDIANAPOLIS   CLOUDY    77  72  84 S7        30.08R
-EAGLE CREEK   CLOUDY    77  71  82 S5        30.08R
KOKOMO +       CLOUDY    73  70  90 CALM      30.11R
MT COMFORT *+  CLOUDY    75  72  88 S6        30.09S
SHELBYVILLE    PTSUNNY   77  71  82 S7        30.09S

$$

INZ033-034-041-042-049-050-058-059-201400-
EAST CENTRAL INDIANA

CITY           SKY/WX    TMP DP  RH WIND       PRES   REMARKS
MUNCIE         CLOUDY    78  70  76 CALM      30.10S
RICHMOND +     CLOUDY    73  72  94 CALM      30.14R

$$

INZ060-061-067>069-081>083-085>088-201400-
SOUTHWEST INDIANA

CITY           SKY/WX    TMP DP  RH WIND       PRES   REMARKS
EVANSVILLE     SUNNY     81  73  76 SW5       30.11R
HUNTINGBURG *+ CLOUDY    78  75  90 S7        30.12R

$$

INZ062-063-066-070>080-084-089>092-201400-
SOUTH CENTRAL AND SOUTHEAST INDIANA

CITY           SKY/WX    TMP DP  RH WIND       PRES   REMARKS
BLOOMINGTON    CLOUDY    77  71  82 SW6       30.11R
MADISON *+     CLOUDY    73  72  94 CALM      30.14R
SEYMOUR +      CLOUDY    75  73  94 E3        30.10

$$




USA.gov is the U.S. government's official web portal to all federal, state and local government web resources and services.